Terug naar catalogus

DELTA 1 DEB

ActiefSSO
NORAD 37641·DEBRIS·🇺🇸 United States

Gelanceerd Mar 5, 1978 vanaf Vandenberg Space Force Base

Loading…

Volgende Passages (komende 24 uur)

TLE

VersSource: Space-Track

Epoch: Sep 13, 2026, 07:33 UTC

1 37641U 78026JC  26256.31522352  .00000683  00000-0  25845-3 0  9992
2 37641  98.7623 289.8922 0071111 165.4537 194.8716 14.33040358368037

Volg DELTA 1 DEB in realtime met AllMySat

Download on the App Store